EW7736 Weather Reports


Display with metric or nautical units.
time (UTC)temp
F
wind
direction
speed
MPH
gust
MPH
rain 1hr
in
rain 24hr
in
rain mn
in
humidity
%
barometer
mb
20260901134343 78 44 2.0 5.0 0.00 0.00 0.00 71 1017.7
20260901133318 77 46 1.0 4.0 0.00 0.00 0.00 68 1017.8
20260901132316 76 46 0.0 3.0 0.00 0.00 0.00 67 1017.9
20260901131338 76 48 0.0 5.0 0.00 0.00 0.00 65 1018.0
20260901130352 75 51 1.0 6.0 0.00 0.00 0.00 64 1018.1
20260901124221 75 51 1.0 5.0 0.00 0.00 0.00 59 1018.2
20260901123200 74 44 1.0 4.0 0.00 0.00 0.00 53 1018.3
20260901122138 74 45 1.0 5.0 0.00 0.00 0.00 52 1018.3
20260901121139 74 50 1.0 5.0 0.00 0.00 0.00 50 1018.2
20260901120121 73 53 2.0 4.0 0.00 0.00 0.00 43 1018.2
20260901113939 72 51 0.0 0.0 0.00 0.00 0.00 33 1017.9
20260901110704 72 49 0.0 0.0 0.00 0.00 0.00 32 1017.8
20260901105710 72 51 0.0 0.0 0.00 0.00 0.00 32 1017.8
20260901104728 72 51 0.0 0.0 0.00 0.00 0.00 33 1017.8
20260901103658 72 51 0.0 0.0 0.00 0.00 0.00 36 1017.7
20260901102717 72 51 0.0 0.0 0.00 0.00 0.00 37 1017.6
20260901100613 72 56 0.0 0.0 0.00 0.00 0.00 39 1017.5
20260901095618 72 49 0.0 0.0 0.00 0.00 0.00 38 1017.5
20260901094610 72 50 0.0 0.0 0.00 0.00 0.00 37 1017.5
20260901093616 72 50 0.0 0.0 0.00 0.00 0.00 36 1017.5
20260901091517 72 53 0.0 0.0 0.00 0.00 0.00 34 1017.5
20260901090448 72 51 0.0 0.0 0.00 0.00 0.00 33 1017.4
20260901085433 72 58 0.0 0.0 0.00 0.00 0.00 34 1017.4
20260901084407 72 56 0.0 0.0 0.00 0.00 0.00 34 1017.5
20260901083342 72 48 0.0 0.0 0.00 0.00 0.00 35 1017.6
20260901082334 72 48 0.0 0.0 0.00 0.00 0.00 37 1017.5
20260901081357 72 48 0.0 0.0 0.00 0.00 0.00 40 1017.6
20260901080333 72 48 0.0 0.0 0.00 0.00 0.00 41 1017.7
20260901075307 72 49 0.0 0.0 0.00 0.00 0.00 42 1017.6
20260901074255 72 56 0.0 0.0 0.00 0.00 0.00 41 1017.6
20260901073228 72 51 0.0 0.0 0.00 0.00 0.00 43 1017.6
20260901072238 72 51 0.0 0.0 0.00 0.00 0.00 44 1017.7
20260901071246 72 51 0.0 0.0 0.00 0.00 0.00 44 1017.7
20260901070240 72 51 0.0 0.0 0.00 0.00 0.00 44 1017.8
20260901065305 72 48 0.0 0.0 0.00 0.00 0.00 46 1017.8
20260901064327 72 84 0.0 0.0 0.00 0.00 0.00 50 1017.7
20260901063312 73 58 0.0 0.0 0.00 0.00 0.00 52 1017.9
20260901062315 73 58 0.0 0.0 0.00 0.00 0.00 54 1018.1
20260901060149 73 45 0.0 0.0 0.00 0.00 0.00 52 1018.2
20260901055119 73 89 0.0 0.0 0.00 0.00 0.00 50 1018.2
20260901054127 73 66 0.0 0.0 0.00 0.00 0.00 46 1018.4
20260901053105 72 54 0.0 0.0 0.00 0.00 0.00 42 1018.4
20260901044600 73 45 0.0 0.0 0.00 0.00 0.00 47 1018.1
20260901043528 73 53 0.0 0.0 0.00 0.00 0.00 47 1018.2
20260901042456 73 41 0.0 0.0 0.00 0.00 0.00 48 1018.1
20260901041427 73 70 0.0 0.0 0.00 0.00 0.00 49 1018.0
20260901040414 73 63 0.0 0.0 0.00 0.00 0.00 51 1017.8
20260901035422 73 46 0.0 0.0 0.00 0.00 0.00 53 1017.6
20260901033323 73 56 0.0 0.0 0.00 0.00 0.00 56 1017.6
20260901032316 73 56 0.0 0.0 0.00 0.00 0.00 58 1017.8
20260901031319 73 56 0.0 0.0 0.00 0.00 0.00 61 1017.9
20260901030256 74 56 0.0 0.0 0.00 0.00 0.00 64 1018.0
20260901025249 74 56 0.0 0.0 0.00 0.00 0.00 68 1018.1
20260901024231 74 56 0.0 0.0 0.00 0.00 0.00 71 1018.3
20260901023200 75 56 0.0 0.0 0.00 0.00 0.00 72 1018.4
20260901022209 75 56 0.0 0.0 0.00 0.00 0.00 73 1018.4
20260901021219 76 56 0.0 0.0 0.00 0.00 0.00 74 1018.5
20260901020220 76 51 0.0 0.0 0.00 0.00 0.00 74 1018.6
20260901015210 76 51 0.0 0.0 0.00 0.00 0.00 74 1018.5
20260901014158 76 55 0.0 0.0 0.00 0.00 0.00 74 1018.5
20260901013208 76 50 0.0 0.0 0.00 0.00 0.00 74 1018.4
20260901012210 77 50 0.0 0.0 0.00 0.00 0.00 74 1018.2
20260901011206 77 50 0.0 0.0 0.00 0.00 0.00 74 1018.1
20260901010206 77 44 0.0 0.0 0.00 0.00 0.00 74 1018.1
20260901002939 78 53 0.0 0.0 0.00 0.00 0.00 71 1017.8
20260901001941 78 49 0.0 0.0 0.00 0.00 0.00 70 1017.7
20260901000957 78 49 0.0 0.0 0.00 0.00 0.00 70 1017.7
20260831233901 79 49 0.0 0.0 0.00 0.00 0.00 72 1017.6
20260831231800 80 49 0.0 0.0 0.00 0.00 0.00 73 1017.7
20260831230735 80 49 0.0 0.0 0.00 0.00 0.00 74 1017.7
20260831225722 80 49 0.0 0.0 0.00 0.00 0.00 74 1017.8
20260831224703 81 49 0.0 0.0 0.00 0.00 0.00 75 1017.8
20260831223639 81 49 0.0 0.0 0.00 0.00 0.00 75 1017.8
20260831222611 81 49 0.0 1.0 0.00 0.00 0.00 75 1017.7
20260831221603 82 49 0.0 2.0 0.00 0.00 0.00 75 1017.7
20260831215440 82 51 0.0 3.0 0.00 0.00 0.00 74 1017.9
20260831213310 83 49 0.0 0.0 0.00 0.00 0.00 74 1018.2
20260831211056 83 49 0.0 2.0 0.00 0.00 0.00 74 1018.4
20260831204915 83 48 0.0 2.0 0.00 0.00 0.00 74 1018.3
20260831203842 82 59 0.0 0.0 0.00 0.00 0.00 74 1018.2
20260831202900 82 47 0.0 1.0 0.00 0.00 0.00 74 1018.3
20260831201831 81 47 0.0 0.0 0.00 0.00 0.00 74 1018.5
20260831200804 81 47 0.0 0.0 0.00 0.00 0.00 74 1018.6
20260831194647 80 47 0.0 0.0 0.00 0.00 0.00 74 1018.9
20260831193642 80 47 0.0 0.0 0.00 0.00 0.00 74 1019.0
20260831192706 80 47 0.0 0.0 0.00 0.00 0.00 74 1019.1
20260831191657 80 47 0.0 0.0 0.00 0.00 0.00 74 1019.1
20260831190658 80 47 0.0 0.0 0.00 0.00 0.00 75 1019.2
20260831185720 80 49 0.0 2.0 0.00 0.00 0.00 75 1019.1
20260831184718 80 53 0.0 2.0 0.00 0.00 0.00 75 1019.2
20260831183728 80 46 0.0 2.0 0.00 0.00 0.00 75 1019.4
20260831182656 80 46 0.0 3.0 0.00 0.00 0.00 75 1019.4
20260831181659 80 53 0.0 1.0 0.00 0.00 0.00 75 1019.4
20260831180715 80 96 0.0 3.0 0.00 0.00 0.00 75 1019.5
20260831175654 80 108 1.0 4.0 0.00 0.00 0.00 75 1019.5
20260831161620 77 49 0.0 0.0 0.00 0.00 0.00 71 1020.1
20260831155529 75 46 0.0 0.0 0.00 0.00 0.00 65 1020.1
20260831154536 75 50 0.0 0.0 0.00 0.00 0.00 63 1020.1
20260831153510 74 58 0.0 0.0 0.00 0.00 0.00 57 1020.0
20260831152508 74 50 0.0 0.0 0.00 0.00 0.00 58 1020.0
20260831151447 74 50 0.0 0.0 0.00 0.00 0.00 52 1019.9
20260831150449 73 11 0.0 0.0 0.00 0.00 0.00 48 1019.9
20260831145512 73 330 0.0 0.0 0.00 0.00 0.00 44 1020.0
20260831143337 72 51 0.0 0.0 0.00 0.00 0.00 35 1019.9
20260831142343 72 51 0.0 0.0 0.00 0.00 0.00 32 1019.9
20260831141330 72 63 0.0 0.0 0.00 0.00 0.00 29 1019.8
20260831140317 72 58 0.0 0.0 0.00 0.00 0.00 18 1019.8
20260831135258 71 53 0.0 0.0 0.00 0.00 0.00 9 1019.8